Regional Weather Roundup
Issued by NWS

Home | Current Version | Previous Version | Graphics & Text | Print | Product List | Glossary On
Versions: 1 2 3 4 5 6 7 8 9 10 11 12 13 14 15 16 17 18 19 20 21 22 23 24 25 26 27 28 29 30 31 32 33 34 35 36 37 38 39 40 41 42 43 44 45 46 47 48 49 50
117
ASUS45 KABQ 180301
RWRNM
NEW MEXICO REGIONAL WEATHER ROUNDUP
NATIONAL WEATHER SERVICE ALBUQUERQUE NM
800 PM MST TUE JAN 17 2017

NOTE: "FAIR" MEANS FEW OR NO CLOUDS BELOW 12,000 FEET AGL WITH NO
       SIGNIFICANT WEATHER OR OBSTRUCTIONS TO VISION.

      THIS PRODUCT IS RELEASED AS TWO VERSIONS.  ONE VERSION NEAR
      THE TOP OF THE HOUR CONTAINING PRELIMINARY DATA FROM ALBUQUERQUE
      AND OTHER STATIONS.  A FINAL VERSION WITH ADDITIONAL DATA IS
      ISSUED ABOUT 10 MINUTES AFTER THE HOUR.

NMZ501-503-504-510>518-180400-
NORTHWEST PLATEAU/NORTHCENTRAL MOUNTAINS

CITY           SKY/WX    TMP DP  RH WIND       PRES   REMARKS
FARMINGTON     FAIR      36  32  85 W3        30.12S
LOS ALAMOS     FAIR      35  27  71 CALM      30.11F
SANTA FE       MOCLDY    35  29  78 N7        30.09S WCI  29
TAOS           CLOUDY    28  21  74 N5        30.12R WCI  23

$$
NMZ402-403-502-505>509-180400-
WESTCENTRAL MOUNTAINS/SOUTHWEST MOUNTAINS

CITY           SKY/WX    TMP DP  RH WIND       PRES   REMARKS
GALLUP         FAIR      31  29  92 CALM      30.14F
GRANTS         MOCLDY    32  32  98 NW8       30.15S WCI  25
SILVER CITY    CLOUDY    38  37  92 CALM      30.14R

$$
NMZ407-409-411-412-180400-
SOUTHERN DESERTS

CITY           SKY/WX    TMP DP  RH WIND       PRES   REMARKS
DEMING         FAIR      40  38  93 CALM      30.14R
LAS CRUCES     FAIR      41  40  96 S6        30.14R
HOLLOMAN AFB   FAIR      43  43  99 SE5       30.16R
ALAMOGORDO     FAIR      41  41 100 S6        30.14R
T OR C         FAIR      43  36  76 W6        30.11R

$$
NMZ519>523-180400-
CENTRAL VALLEYS/CENTRAL HIGHLANDS

CITY           SKY/WX    TMP DP  RH WIND       PRES   REMARKS
ALBUQUERQUE    MOCLDY    41  35  79 SE6       30.11R
DOUBLE EAGLE   PTCLDY    36  32  87 SW8       30.12R WCI  29
MORIARTY ARPT  FAIR      33  29  83 N5        30.12R WCI  29
CLINES CORNERS NOT AVBL
BELEN          MOCLDY    40  33  77 W3        30.12R
SOCORRO        FAIR      40  36  86 CALM      30.12R

$$
NMZ524>526-539-540-180400-
SOUTHCENTRAL MOUNTAINS

CITY           SKY/WX    TMP DP  RH WIND       PRES   REMARKS
RUIDOSO        LGT SNOW  32  32 100 CALM      30.16R VSB 1

$$
NMZ527>531-180400-
NORTHEAST HIGHLANDS/NORTHEAST PLAINS

CITY           SKY/WX    TMP DP  RH WIND       PRES   REMARKS
LAS VEGAS      FAIR      28  27  96 E7        30.08R WCI  21
RATON          FAIR      25  22  88 CALM      30.07R
CLAYTON        FAIR      35  32  88 SW8       30.08S WCI  29

$$
NMZ532>537-180400-
EASTCENTRAL PLAINS

CITY           SKY/WX    TMP DP  RH WIND       PRES   REMARKS
TUCUMCARI      FAIR      45  38  76 S8        30.09R
CANNON AFB     LGT RAIN  43  43 100 S10       30.14R
CLOVIS AIRPORT CLOUDY    43  37  81 SW9       30.14R

$$
NMZ028-029-538-180400-
SOUTHEAST PLAINS

CITY           SKY/WX    TMP DP  RH WIND       PRES   REMARKS
ROSWELL        CLOUDY    44  41  89 W8        30.16R
ARTESIA        CLOUDY    43  43 100 CALM      30.16S
CARLSBAD       CLOUDY    44  43  96 S3        30.16R


$$




USA.gov is the U.S. government's official web portal to all federal, state and local government web resources and services.